Home   Weather   Inverness   Past weeks
Flag for United Kingdom

Past Weather in Inverness, Scotland, United Kingdom — Yesterday and Last 2 Weeks

Now
55 °F

Passing clouds.


Feels Like: 53 °F
Forecast: 52 / 42 °F
Wind: 8 mph from South

Location: Inverness / Dalcross

Current Time: Oct 17, 2019 at 2:20:33 pm

Latest Report: Oct 17, 2019 at 1:20 pm


Visibility: N/A

Pressure: 29.50 "Hg

Humidity: 72%

Dew Point: 46 °F

Location of InvernessLocation

Past Weather in Inverness — Graph

°F

Inverness Temperature Yesterday

Maximum temperature yesterday: 54 °F (at 8:20 am)
Minimum temperature yesterday: 36 °F (at 11:50 pm)
Average temperature yesterday: 46 °F

High & Low Weather Summary for the Past Weeks

 TemperatureHumidityPressure
High57 °F (Oct 6, 2:50 pm)100% (Oct 2, 10:50 pm)30.18 "Hg (Oct 2, 10:50 pm)
Low28 °F (Oct 17, 6:20 am)63% (Oct 2, 12:50 pm)29.12 "Hg (Oct 8, 12:50 pm)
Average48 °F87%29.56 "Hg
* Reported Oct 2 12:20 pm — Oct 17 12:50 pm, Inverness. Weather by CustomWeather, © 2019

Note: Actual official high and low records may vary slightly from our data, if they occured in-between our weather recording intervals... More about our weather records

Advertising

Inverness Weather History for the Previous 24 Hours

Scroll right to see more
 ConditionsComfort  
Time TempWeatherWind HumidityBarometerVisibility
12:50 pm
Thu, Oct 17
55 °FPassing clouds.10 mph72%29.50 "HgN/A
12:20 pm55 °FPassing clouds.5 mph72%29.50 "HgN/A
11:50 am48 °FPassing clouds.2 mph100%29.50 "HgN/A
11:20 am45 °FFog.2 mph100%29.50 "HgN/A
10:50 am41 °FSleet. Cloudy.1 mph100%29.53 "Hg1 mi
10:20 am39 °FFog.1 mph100%29.53 "Hg0 mi
9:50 am34 °FFog.No wind100%29.53 "Hg0 mi
9:20 am32 °FFog.2 mph100%29.53 "Hg0 mi
8:50 am32 °FIce fog.2 mph100%29.53 "Hg0 mi
8:20 am32 °FFog.1 mph100%29.53 "Hg0 mi
7:50 am32 °FFog.No wind100%29.53 "Hg1 mi
7:20 am28 °FFog.1 mph100%29.50 "Hg1 mi
6:50 am28 °FIce fog.No wind100%29.50 "Hg2 mi
6:20 am28 °FIce fog.No wind100%29.50 "Hg2 mi
5:50 am30 °FChilly.No wind100%29.50 "HgN/A
5:20 am30 °FChilly.1 mph100%29.50 "HgN/A
4:50 am30 °FFog.2 mph100%29.53 "HgN/A
4:20 am32 °FClear.1 mph100%29.53 "Hg10 mi
3:50 am32 °FClear.2 mph100%29.53 "Hg10 mi
3:20 am34 °FClear.1 mph100%29.53 "Hg10 mi
2:50 am32 °FClear.1 mph100%29.53 "HgN/A
2:20 am32 °FChilly.No wind100%29.53 "HgN/A
1:50 am34 °FChilly.2 mph100%29.53 "HgN/A
1:20 am34 °FChilly.2 mph100%29.53 "HgN/A
12:50 am36 °FChilly.1 mph100%29.53 "HgN/A
12:20 am36 °FChilly.3 mph100%29.53 "HgN/A
11:50 pm
Wed, Oct 16
36 °FChilly.5 mph100%29.50 "HgN/A
11:20 pm37 °FChilly.3 mph100%29.50 "HgN/A
10:50 pm37 °FChilly.1 mph100%29.50 "HgN/A
10:20 pm37 °FChilly.1 mph100%29.50 "HgN/A
9:50 pm41 °FPassing clouds.6 mph93%29.50 "HgN/A
9:20 pm39 °FPassing clouds.1 mph100%29.50 "HgN/A
8:50 pm39 °FPassing clouds.5 mph100%29.47 "HgN/A
8:20 pm41 °FPassing clouds.6 mph93%29.47 "HgN/A
7:50 pm41 °FPassing clouds.5 mph93%29.47 "HgN/A
7:20 pm41 °FPassing clouds.7 mph93%29.47 "HgN/A
6:50 pm43 °FPassing clouds.7 mph93%29.47 "HgN/A
6:20 pm45 °FPassing clouds.5 mph93%29.45 "HgN/A
5:50 pm48 °FPassing clouds.8 mph87%29.45 "HgN/A
5:20 pm48 °FScattered clouds.6 mph94%29.45 "HgN/A
4:50 pm52 °FScattered clouds.8 mph88%29.45 "HgN/A
4:20 pm54 °FScattered clouds.10 mph88%29.45 "HgN/A
3:50 pm52 °FScattered clouds.13 mph88%29.45 "HgN/A
3:20 pm54 °FScattered clouds.12 mph88%29.42 "HgN/A
2:50 pm52 °FScattered clouds.10 mph94%29.42 "HgN/A
2:20 pm52 °FScattered clouds.8 mph94%29.42 "HgN/A
Weather by CustomWeather, © 2019

See weather overview